Weather History for KMFI - December, 2012

Change the Weather History Date:

Sunday, December 30, 2012

  Actual Average Record
Temperature  
Mean Temperature 12 °F -  
Max Temperature 21 °F 24 °F 47 °F (1936)
Min Temperature 3 °F 6 °F -20 °F (1938)
Degree Days  
Heating Degree Days 53    
Moisture  
Dew Point 8 °F    
Average Humidity 81    
Maximum Humidity 92    
Minimum Humidity 68    
Precipitation  
Precipitation 0.00 in - - ()
Sea Level Pressure  
Sea Level Pressure 30.14 in    
Wind  
Wind Speed 7 mph (SW)    
Max Wind Speed 12 mph    
Max Gust Speed -    
Visibility 7 miles    
Events Snow    
Averages and records for this station are not official NWS values.
T = Trace of Precipitation, MM = Missing Value Source: NWS Daily Summary

Daily Weather History Graph

Daily Weather History Graph

Search for Another Location

Airport or City:

Trip Planner

Search our weather history database for the weather conditions in past years. The results will help you decide how hot, cold, wet, or windy it might be!

Date:

Astronomy

Dec. 30, 2012 Rise Set
Actual Time 7:37 AM CST 4:29 PM CST
Civil Twilight 7:04 AM CST 5:03 PM CST
Nautical Twilight 6:27 AM CST 5:40 PM CST
Astronomical Twilight 5:51 AM CST 6:15 PM CST
Moon 7:07 PM CST (12/30) 8:40 AM CST (12/30)
Length of Visible Light 9h 58m
Length of Day
8h 52m
Waning Gibbous, 95% of the Moon is Illuminated
Dec 30
Waning Gibbous
Jan 4
Last Quarter
Jan 11
New
Jan 18
First Quarter
Jan 26
Full

Hourly Weather History & Observations

Time (CST) Temp. Windchill Dew Point Humidity Pressure Visibility Wind Dir Wind Speed Gust Speed Precip Events Conditions
12:54 AM 12.9 °F 1.6 °F 9.0 °F 84% 30.17 in 6.0 mi West 8.1 mph - N/A   Overcast
1:16 AM 12.2 °F 0.7 °F 8.6 °F 85% 30.10 in 7.0 mi West 8.1 mph - N/A   Overcast
1:54 AM 12.9 °F 1.6 °F 9.0 °F 84% 30.18 in 7.0 mi West 8.1 mph - N/A   Overcast
2:18 AM 12.2 °F 0.7 °F 8.6 °F 85% 30.10 in 7.0 mi WNW 8.1 mph - N/A   Overcast
2:54 AM 12.0 °F 2.7 °F 9.0 °F 88% 30.20 in 6.0 mi West 5.8 mph - N/A   Overcast
3:54 AM 10.9 °F -2.6 °F 8.1 °F 88% 30.23 in 5.0 mi West 10.4 mph - 0.00 in Snow Light Snow
4:54 AM 8.1 °F -4.3 °F 5.0 °F 87% 30.22 in 6.0 mi WSW 8.1 mph - 0.00 in   Overcast
5:54 AM 7.0 °F 0.1 °F 3.9 °F 87% 30.23 in 6.0 mi West 3.5 mph - N/A   Overcast
6:54 AM 5.0 °F -2.1 °F 3.0 °F 92% 30.24 in 6.0 mi WSW 3.5 mph - N/A   Overcast
7:54 AM 3.9 °F -6.9 °F 1.0 °F 88% 30.25 in 5.0 mi West 5.8 mph - N/A   Scattered Clouds
8:54 AM 3.9 °F -3.4 °F 1.0 °F 88% 30.24 in 5.0 mi WSW 3.5 mph - N/A   Clear
9:54 AM 6.1 °F -5.6 °F 1.9 °F 83% 30.28 in 5.0 mi WSW 6.9 mph - N/A   Clear
10:54 AM 9.0 °F 0.6 °F 3.9 °F 80% 30.27 in 6.0 mi WSW 4.6 mph - N/A   Haze
11:54 AM 12.0 °F - 5.0 °F 73% 30.22 in 6.0 mi Calm Calm - N/A   Haze
12:54 PM 14.0 °F 3.9 °F 7.0 °F 74% 30.19 in 8.0 mi South 6.9 mph - N/A   Clear
1:54 PM 17.1 °F 8.7 °F 8.1 °F 68% 30.15 in 10.0 mi SSE 5.8 mph - N/A   Clear
2:54 PM 18.0 °F 8.7 °F 10.0 °F 71% 30.14 in 10.0 mi South 6.9 mph - N/A   Clear
3:54 PM 19.0 °F 12.3 °F 10.0 °F 68% 30.11 in 10.0 mi SSE 4.6 mph - N/A   Clear
4:54 PM 15.1 °F 4.2 °F 8.1 °F 74% 30.09 in 10.0 mi SSE 8.1 mph - N/A   Clear
5:54 PM 16.0 °F 3.6 °F 10.0 °F 77% 30.06 in 10.0 mi SSE 10.4 mph - N/A   Clear
6:54 PM 18.0 °F 5.4 °F 10.9 °F 74% 30.04 in 10.0 mi SSE 11.5 mph - N/A   Mostly Cloudy
7:54 PM 16.0 °F 3.6 °F 10.0 °F 77% 30.03 in 9.0 mi South 10.4 mph - N/A   Clear
8:54 PM 17.1 °F 7.6 °F 12.0 °F 81% 30.00 in 9.0 mi South 6.9 mph - N/A   Overcast
9:54 PM 19.0 °F 9.0 °F 12.9 °F 77% 29.97 in 8.0 mi South 8.1 mph - N/A   Overcast
10:54 PM 21.0 °F 10.6 °F 16.0 °F 81% 29.95 in 8.0 mi SSW 9.2 mph - N/A   Overcast
11:54 PM 21.0 °F 12.4 °F 16.0 °F 81% 29.92 in 8.0 mi SW 6.9 mph - N/A   Overcast